Location: Nasgenstadt
(48.2786°N, 9.7553°E)
Time: 22:19:38
(UTC+01:00)

N. Korean satellite - Visible Passes

Search period start: 21 November 2017 00:00
Search period end: 01 December 2017 00:00
Orbit: 460 x 514 km, 97.2° (Epoch: 21 November)

Date Brightness Start Highest point End Pass type
(mag) Time Alt. Az. Time Alt. Az. Time Alt. Az.
21 Nov 8.7 06:42:06 10° NNE 06:45:32 33° E 06:48:57 10° SSE visible
21 Nov 7.7 17:22:23 10° ESE 17:25:12 22° ENE 17:28:03 10° NNE visible
21 Nov 8.6 18:55:31 10° SSW 18:58:36 28° W 19:01:45 10° NW visible
22 Nov 9.8 06:19:10 10° NE 06:21:54 19° E 06:24:38 10° SE visible
22 Nov 7.3 18:31:33 10° S 18:35:01 54° W 18:38:34 10° NNW visible
23 Nov 10.3 05:57:16 10° ENE 05:58:11 11° E 05:59:06 10° ESE visible
23 Nov 6.4 18:07:59 10° SSE 18:11:30 77° ENE 18:15:08 10° N visible
24 Nov 7.3 07:04:55 10° NNE 07:08:39 62° E 07:12:23 10° S visible
24 Nov 7.0 17:44:45 10° SE 17:48:05 39° ENE 17:51:29 10° N visible
24 Nov 9.6 19:19:31 10° SW 19:21:48 16° W 19:24:08 10° NW visible
25 Nov 8.7 06:41:38 10° NNE 06:45:06 33° E 06:48:31 10° SSE visible
25 Nov 7.7 17:21:53 10° ESE 17:24:43 23° ENE 17:27:36 10° NNE visible
25 Nov 8.6 18:55:00 10° SSW 18:58:07 29° W 19:01:20 10° NNW visible
26 Nov 9.7 06:18:42 10° NE 06:21:26 19° E 06:24:11 10° SE visible
26 Nov 7.3 18:31:02 10° S 18:34:31 55° W 18:38:07 10° NNW visible
27 Nov 10.3 05:56:47 10° ENE 05:57:42 11° E 05:58:38 10° ESE visible
27 Nov 6.4 18:07:26 10° SSE 18:11:00 76° ENE 18:14:39 10° N visible
28 Nov 7.3 07:04:25 10° NNE 07:08:10 62° E 07:11:53 10° S visible
28 Nov 7.0 17:44:11 10° SE 17:47:33 40° ENE 17:51:00 10° N visible
28 Nov 9.6 19:18:55 10° SW 19:21:16 17° W 19:23:40 10° NW visible
29 Nov 8.7 06:41:07 10° NNE 06:44:34 33° E 06:48:00 10° SSE visible
29 Nov 7.7 17:21:18 10° ESE 17:24:11 23° ENE 17:27:06 10° NNE visible
29 Nov 8.6 18:54:24 10° SSW 18:57:34 29° W 19:00:49 10° NNW visible
30 Nov 9.7 06:18:09 10° NE 06:20:54 19° E 06:23:37 10° SE visible
30 Nov 7.3 18:30:25 10° S 18:33:57 56° W 18:37:35 10° NNW visible
